GW0883 Weather Reports


Display with metric or nautical units.
time (UTC)temp
F
wind
direction
speed
MPH
gust
MPH
rain 1hr
in
rain 24hr
in
rain mn
in
humidity
%
barometer
mb
20260903052628 0 0 0.0 0.0 0.00 0.01 0.00 100
20260903051614 0 0 0.0 0.0 0.00 0.01 0.00 100
20260903050713 0 0 0.0 0.0 0.00 0.01 0.00 100
20260903045813 0 0 0.0 0.0 0.00 0.01 0.00 100
20260903044815 0 0 0.0 0.0 0.00 0.01 0.00 100
20260903043812 0 0 0.0 0.0 0.00 0.01 0.00 100
20260903042911 0 0 0.0 0.0 0.00 0.01 0.00 100
20260903041913 0 0 0.0 0.0 0.00 0.01 0.00 100
20260903041012 0 0 0.0 0.0 0.00 0.01 0.00 100
20260903040013 0 0 0.0 0.0 0.00 0.01 0.00 100
20260903035011 0 0 0.0 0.0 0.00 0.01 0.00 100
20260903034013 0 0 0.0 0.0 0.00 0.01 0.00 100
20260903033015 0 0 0.0 0.0 0.00 0.01 0.00 100
20260903032017 63 270 0.0 0.0 0.00 0.01 0.01 77 1021.8
20260903031016 0 0 0.0 0.0 0.00 0.01 0.00 100
20260903030017 0 0 0.0 0.0 0.00 0.01 0.00 100
20260903025015 0 0 0.0 0.0 0.00 0.01 0.00 100
20260903024016 0 0 0.0 0.0 0.00 0.01 0.00 100
20260903023015 0 0 0.0 0.0 0.00 0.01 0.00 100
20260903022016 0 0 0.0 0.0 0.00 0.01 0.00 100
20260903021014 0 0 0.0 0.0 0.00 0.01 0.00 100
20260903020014 0 0 0.0 0.0 0.00 0.01 0.00 100
20260903015016 0 0 0.0 0.0 0.00 0.01 0.00 100
20260903014016 0 0 0.0 0.0 0.00 0.01 0.00 100
20260903013015 0 0 0.0 0.0 0.00 0.01 0.00 100
20260903012017 0 0 0.0 0.0 0.00 0.01 0.00 100
20260903011115 0 0 0.0 0.0 0.00 0.01 0.00 100
20260903004115 66 97 0.0 1.0 0.00 0.01 0.01 71 1022.7
20260903003214 66 67 1.0 1.0 0.00 0.01 0.01 70 1022.5
20260903002214 66 326 0.0 1.0 0.00 0.01 0.01 70 1022.7
20260903000214 0 0 0.0 0.0 0.00 0.01 0.00 100
20260902235217 0 0 0.0 0.0 0.00 0.01 0.00 100
20260902234214 0 0 0.0 0.0 0.00 0.01 0.00 100
20260902233216 0 0 0.0 0.0 0.00 0.01 0.00 100
20260902232219 0 0 0.0 0.0 0.00 0.01 0.00 100
20260902230216 68 112 3.0 3.0 0.00 0.01 0.01 68 1023.3
20260902225218 0 0 0.0 0.0 0.00 0.01 0.00 100
20260902224217 0 0 0.0 0.0 0.00 0.01 0.00 100
20260902223220 0 0 0.0 0.0 0.00 0.01 0.00 100
20260902221233 0 0 0.0 0.0 0.00 0.01 0.00 100
20260902220217 69 360 0.0 0.0 0.00 0.01 0.01 67 1023.3
20260902215217 0 0 0.0 0.0 0.00 0.01 0.00 100
20260902214217 69 39 3.0 4.0 0.00 0.01 0.01 67 1023.3
20260902212232 70 67 0.0 0.0 0.00 0.01 0.01 67 1022.9
20260902210316 71 292 0.0 0.0 0.00 0.01 0.01 67 1022.5
20260902205316 71 337 6.0 6.0 0.00 0.01 0.01 67 1023.0
20260902204415 71 134 2.0 2.0 0.00 0.01 0.01 67 1023.0
20260902203416 71 51 2.0 5.0 0.00 0.01 0.01 68 1023.2
20260902202417 71 180 0.0 0.0 0.00 0.01 0.01 68 1023.5
20260902201418 71 45 2.0 3.0 0.00 0.01 0.01 68 1023.3
20260902200416 71 87 2.0 3.0 0.00 0.01 0.01 69 1023.6
20260902194416 71 22 0.0 0.0 0.00 0.01 0.01 69 1023.7
20260902192513 72 47 2.0 3.0 0.00 0.01 0.01 70 1023.5
20260902191514 73 12 4.0 6.0 0.00 0.01 0.01 70 1023.6
20260902190612 74 45 2.0 2.0 0.00 0.01 0.01 70 1023.6
20260902185613 74 45 0.0 0.0 0.00 0.02 0.01 71 1023.5
20260902184614 74 22 3.0 3.0 0.00 0.03 0.01 71 1023.6
20260902183612 73 112 2.0 2.0 0.00 0.04 0.01 71 1023.5
20260902182615 73 202 2.0 2.0 0.00 0.06 0.01 72 1023.6
20260902181613 73 360 0.0 0.0 0.00 0.09 0.01 73 1023.7
20260902180612 72 112 3.0 3.0 0.00 0.09 0.01 73 1023.9
20260902175614 73 45 2.0 2.0 0.00 0.10 0.01 74 1023.8
20260902174712 74 360 4.0 4.0 0.00 0.11 0.01 75 1023.7
20260902173715 74 45 2.0 2.0 0.00 0.12 0.01 75 1023.8
20260902172715 73 146 4.0 5.0 0.00 0.13 0.01 76 1023.6
20260902171714 73 86 0.0 1.0 0.00 0.14 0.01 78 1023.5
20260902170812 73 112 1.0 1.0 0.00 0.14 0.01 78 1023.8
20260902164912 72 23 4.0 5.0 0.00 0.14 0.01 80 1024.4
20260902163928 73 225 0.0 0.0 0.00 0.14 0.01 81 1024.6
20260902163013 73 172 2.0 4.0 0.00 0.14 0.01 83 1024.5
20260902161112 72 39 2.0 2.0 0.00 0.14 0.01 84 1024.5
20260902160115 72 112 4.0 4.0 0.00 0.14 0.01 85 1024.5
20260902155212 70 74 0.0 1.0 0.00 0.14 0.01 87 1024.7
20260902154216 70 112 2.0 2.0 0.00 0.14 0.01 86 1024.9
20260902153313 70 22 2.0 2.0 0.00 0.14 0.01 88 1025.0
20260902151314 69 67 3.0 3.0 0.00 0.14 0.01 90 1025.0
20260902150312 69 22 2.0 2.0 0.00 0.14 0.01 90 1025.0
20260902145313 69 111 3.0 4.0 0.00 0.14 0.01 92 1025.2
20260902144312 69 22 3.0 3.0 0.00 0.14 0.01 92 1025.0
20260902142409 68 112 1.0 1.0 0.01 0.14 0.01 93 1025.0
20260902140507 67 120 0.0 1.0 0.01 0.14 0.01 95 1024.7
20260902135509 66 48 0.0 1.0 0.01 0.14 0.01 95 1024.5
20260902133509 65 71 1.0 3.0 0.01 0.14 0.01 94 1024.6
20260902132510 65 47 5.0 8.0 0.00 0.13 0.00 94 1024.5
20260902131508 64 34 3.0 4.0 0.00 0.13 0.00 94 1024.4
20260902125507 63 45 1.0 3.0 0.00 0.13 0.00 94 1024.8
20260902123609 62 96 1.0 3.0 0.00 0.13 0.00 95 1025.0
20260902122609 62 42 0.0 0.0 0.00 0.13 0.00 94 1024.9
20260902115610 61 292 0.0 0.0 0.00 0.13 0.00 95 1025.1
20260902114609 61 292 0.0 0.0 0.00 0.13 0.00 94 1025.2
20260902113608 61 292 0.0 0.0 0.00 0.13 0.00 95 1025.2
20260902112610 61 292 0.0 0.0 0.00 0.13 0.00 95 1025.1
20260902111610 60 292 0.0 0.0 0.00 0.13 0.00 95 1024.9
20260902110708 60 292 0.0 0.0 0.00 0.13 0.00 95 1025.0
20260902104709 60 292 0.0 0.0 0.00 0.13 0.00 95 1024.7
20260902103807 60 292 0.0 0.0 0.00 0.13 0.00 95 1024.5
20260902102809 60 292 0.0 0.0 0.00 0.13 0.00 95 1024.4
20260902101809 60 292 0.0 0.0 0.00 0.13 0.00 95 1024.5
20260902100810 60 292 0.0 0.0 0.00 0.13 0.00 95 1024.3
20260902094909 60 292 0.0 0.0 0.00 0.13 0.00 94 1024.2
20260902093909 60 292 0.0 0.0 0.00 0.13 0.00 94 1024.0
20260902092909 60 292 0.0 0.0 0.00 0.13 0.00 94 1024.1
20260902091910 59 292 0.0 0.0 0.00 0.13 0.00 94 1023.5
20260902090909 60 292 0.0 0.0 0.00 0.13 0.00 94 1023.8
20260902085008 59 292 0.0 0.0 0.00 0.13 0.00 93 1023.8
20260902084008 59 292 0.0 0.0 0.00 0.13 0.00 94 1023.5
20260902083007 59 292 0.0 0.0 0.00 0.13 0.00 94 1023.6
20260902082010 59 292 0.0 0.0 0.00 0.13 0.00 93 1023.5
20260902081009 59 292 0.0 0.0 0.00 0.13 0.00 94 1023.7
20260902080008 59 292 0.0 0.0 0.00 0.13 0.00 94 1023.6
20260902074010 60 292 0.0 0.0 0.00 0.13 0.00 94 1023.6
20260902073910 60 292 0.0 0.0 0.00 0.13 0.00 94 1023.8
20260902072907 60 292 0.0 0.0 0.00 0.13 0.00 93 1023.8
20260902070909 60 292 0.0 0.0 0.00 0.13 0.00 94 1023.8
20260902065910 60 292 0.0 0.0 0.00 0.13 0.00 94 1023.6
20260902064909 60 292 0.0 0.0 0.00 0.13 0.00 94 1023.7
20260902063007 60 292 0.0 0.0 0.00 0.13 0.00 94 1023.4
20260902062010 60 292 0.0 0.0 0.00 0.13 0.00 93 1023.6
20260902060208 59 292 0.0 0.0 0.00 0.13 0.00 92 1023.5
20260902055210 60 292 0.0 0.0 0.00 0.13 0.00 93 1023.5
20260902054210 59 292 0.0 0.0 0.00 0.13 0.00 93 1023.6